NOAA 16 DEB, 41534

Orbit data source: Space-Track

NOAA 16 DEB, 41534 is space debris in SSO originally from a launch on Thu, 21 Sep 2000 UTC launched from the Air Force Western Test Range (AFWTR). Debris objects in space refer to the collection of defunct objects orbiting the Earth. Examples of debris include non-operational satellites, rocket bodies, and fragments generated from explosions, collisions, or faulty payload assembly.

Loading next visibility...
Identifier
41534, 2000-055NJ
Orbit
SSO
Country
Flag of USUS
Related business
Manufacturer
Unknown
Mission
Spacecraft
Bus & Motor
Unknown
Mass
Unknown
Launch date (UTC)
2000-09-21 (25 years ago)
Launch vehicle
Unknown
Launch site
Air Force Western Test Range (AFWTR)
Object type
Payload
Rocket body
Debris
Shape & HBR
Unknown shape, 0.1 m
Radar Cross Section
Small (<0.1 m²)

Expand to show TLE details & history
Last TLE update: 6 hours ago

TLE from 6 hours ago
0 NOAA 16 DEB
1 41534U 00055NJ  25291.17445789  .00010842  00000-0  41321-2 0  9999
2 41534  98.8206  10.6806 0022451 169.7015 190.4631 14.30863065488680
Epoch: 2025-10-18T04:11Z
TLE epoch observation values (Epoch: 2025-10-18T04:11:13.161Z)
Latitude
-0.00009°
Longitude
-79.03348°
Altitude
807.601 km
Speed
7.441 km/s
True Right ascension
00h 42m 43s
True Declination
0° 00' 00"
Sunlit
Object was in full shadow at epoch
Visualization orbit readout
Latitude
Unknown
Longitude
Unknown
Altitude
Unknown
Speed
Unknown
Apparent Right ascension
Unknown
Apparent Declination
Unknown
Sunlit
N/A
Visualization observer readout
Local Sidereal Time
05:14:08
Azimuth
Unknown
Elevation
Unknown
Doppler factor
Unknown
Orbital elements
Apogee altitude
802.081 km
Perigee altitude
769.913 km
Semi-major axis
7,164.134 km
Eccentricity
0.00225
Inclination
98.8206°
RAAN
10.6806°
Arg. of periapsis
169.7015°
True anomaly
190.41651°
Mean anomaly
190.4631°
Eccentric anomaly
190.43979°
Mean motion
3.5793 °/min
Orbital period
100.58 mins
BSTAR
0.0041321
Loading maneuver chart data...
Computing Atmospheric mass density...

Documentation

Showing up to 5 results
|